Terminal Aerodrome Forecast
Issued by NWS

Home | Current Version | Previous Version | Graphics & Text | Print | Product List | Glossary On
Versions: 1 2 3 4 5 6 7 8 9 10 11 12 13 14 15 16 17 18
000
FTUS42 KMHX 271150 AAB
TAFPGV
TAF AMD
KPGV 271150Z 2712/2812 23010KT P6SM SCT060
     FM272200 24009KT P6SM VCTS BKN060CB
     FM280300 19007KT P6SM BKN150
      AMD LTD TO CLD VIS AND WIND=

USA.gov is the U.S. government's official web portal to all federal, state and local government web resources and services.